TimeEDT,TemperatureF,Dew PointF,Humidity,Sea Level PressureIn,VisibilityMPH,Wind Direction,Wind SpeedMPH,Gust SpeedMPH,PrecipitationIn,Events,Conditions,WindDirDegrees,DateUTC
12:29 AM,41.0,33.8,76,30.17,10.0,NNW,9.2,-,N/A,,Overcast,340,2014-03-30 04:29:00
12:53 AM,41.0,33.1,73,30.18,9.0,NNW,4.6,-,N/A,,Overcast,340,2014-03-30 04:53:00
1:53 AM,39.9,30.9,70,30.19,10.0,NNW,8.1,-,N/A,,Overcast,340,2014-03-30 05:53:00
2:53 AM,39.9,30.0,68,30.19,10.0,NNW,11.5,-,N/A,,Overcast,330,2014-03-30 06:53:00
3:53 AM,39.9,32.0,73,30.18,10.0,NNW,5.8,-,N/A,,Overcast,340,2014-03-30 07:53:00
4:53 AM,37.9,30.0,73,30.19,10.0,NNW,11.5,-,N/A,,Scattered Clouds,330,2014-03-30 08:53:00
5:53 AM,36.0,30.0,79,30.22,10.0,NW,6.9,-,N/A,,Clear,320,2014-03-30 09:53:00
6:53 AM,34.0,28.0,79,30.23,10.0,WNW,6.9,-,N/A,,Clear,300,2014-03-30 10:53:00
7:53 AM,33.1,28.0,82,30.25,8.0,NW,4.6,-,N/A,,Clear,320,2014-03-30 11:53:00
8:53 AM,36.0,28.0,73,30.27,10.0,North,6.9,-,N/A,,Clear,350,2014-03-30 12:53:00
9:53 AM,39.0,27.0,62,30.24,10.0,NNE,4.6,-,N/A,,Clear,20,2014-03-30 13:53:00
10:53 AM,43.0,28.0,56,30.26,10.0,North,5.8,-,N/A,,Clear,10,2014-03-30 14:53:00
11:53 AM,44.1,27.0,51,30.27,10.0,NW,8.1,-,N/A,,Clear,310,2014-03-30 15:53:00
12:53 PM,48.0,27.0,44,30.26,10.0,NNW,6.9,-,N/A,,Clear,340,2014-03-30 16:53:00
1:53 PM,51.1,23.0,33,30.23,10.0,North,9.2,-,N/A,,Clear,350,2014-03-30 17:53:00
2:53 PM,54.0,28.0,37,30.20,10.0,NNW,5.8,-,N/A,,Clear,330,2014-03-30 18:53:00
3:53 PM,55.0,27.0,34,30.17,10.0,NNW,3.5,-,N/A,,Clear,340,2014-03-30 19:53:00
4:53 PM,55.9,27.0,33,30.16,10.0,WNW,5.8,-,N/A,,Clear,300,2014-03-30 20:53:00
5:53 PM,57.9,27.0,31,30.16,10.0,North,6.9,-,N/A,,Clear,350,2014-03-30 21:53:00
6:53 PM,57.9,28.0,32,30.16,10.0,Calm,Calm,-,N/A,,Clear,0,2014-03-30 22:53:00
7:53 PM,55.9,27.0,33,30.15,10.0,NW,3.5,-,N/A,,Clear,320,2014-03-30 23:53:00
8:53 PM,52.0,28.9,41,30.17,10.0,Calm,Calm,-,N/A,,Clear,0,2014-03-31 00:53:00
9:53 PM,48.9,30.0,48,30.17,10.0,Calm,Calm,-,N/A,,Clear,0,2014-03-31 01:53:00
10:53 PM,46.9,30.0,52,30.17,10.0,Calm,Calm,-,N/A,,Clear,0,2014-03-31 02:53:00
11:53 PM,45.0,30.0,56,30.17,10.0,Calm,Calm,-,N/A,,Clear,0,2014-03-31 03:53:00